Location: *
(49.3500°N, 12.6000°E)
Time: 22:38:49
(UTC+00:00)

STARLINK-39 - Pass Details

Date: 18 October 2019
Orbit: 548 x 551 km, 53.0° (Epoch: 12 November)

Event Time Altitude Azimuth Distance (km) Brightness Sun altitude
Rises 18:15:41 0° 274° (W) 2,717 8.7 -20.5°
Reaches altitude 10° 18:17:58 10° 279° (W) 1,825 7.5 -20.9°
Maximum altitude 18:22:01 50° 356° (N) 703 4.1 -21.5°
Enters shadow 18:22:38 46° 27° (NNE) 749 4.1 -21.6°
